Probability
0 0 0 0 0 0 0 0 0 0 0 0 0 0 0 0 0 0 0 0 0 0 0 0 0 0 0 0 0 0 0 0 0 0 0 0 0 0 0 0 0 0 0
0 0 0 0 0 0 0 0 0 0 0 0 0 0 0 0 0 0 0 0 0 0 0 0 0 0 0 0 0 0 0 0 0 0 0 0 0 0 0 0 0 0 0
0 0 0 0 0 0 0 0 0 0 0 0 0 0 0 0 0 0 0 0 0 0 0 0 0 0 0 0 0 0 0 0 0 0 0 0 0 0 0 0 0 0 0
0 0 0 0 0 0 0 0 0 0 0 0 0 0 0 0 0 0 0 0 0 0 0 0 0 0 0 0 0 0 0 0 0 0 0 0 0 0 0 0 0 0 0
0 0 0 0 0 0 0 0 0 0 0 0 0 0 0 0 0 0 0 0 0 0 0 0 0 0 0 0 0 0 0 0 0 0 0 0 0 0 0 0 0 0 0
0 0 0 0 0 0 0 0 0 0 0 0 0 0 0 0 0 0 0 0 0 0 0 0 0 0 0 0 0 0 0 0 0 0 0 0 0 0 0 0 0 0 0
0 0 0 0 0 0 0 0 0 0 0 0 0 0 0 0 0 0 0 0 0 0 0 0 0 0 0 0 0 0 0 0 0 0 0 0 0 0 0 0 0 0 0
0 0 0 0 0 0 0 0 0 0 0 0 0 0 0 0 0 0 0 0 0 0 0 0 0 0 0 0 0 0 0 0 0 0 0 0 0 0 0 0 0 0 0
0 0 0 0 0 0 0 0 0 0 0 0 0 0 0 0 0 0 0 0 0 0 0 0 0 0 0 0 0 0 0 0 0 0 0 0 0 0 0 0 0 0 0
0 0 0 0 0 0 0 0 0 0 0 0 0 0 0 0 0 0 0 0 0 0 0 0 0 0 0 0 0 0 0 0 0 0 0 0 0 0 0 0 0 0 0
0 0 0 0 0 0 0 0 0 0 0 0 0 0 0 0 0 0 0 0 0 0 0 0 0 0 0 0 0 0 0 0 0 0 0 0 0 0 0 0 0 0 0
0 0 0 0 0 0 0 0 0 0 0 0 0 0 0 0 0 0 0 0 0 0 0 0 0 0 0 0 0 0 0 0 0 0 0 0 0 0 0 0 0 0 0
0 0 0 0 0 0 0 0 0 0 0 0 0 0 0 0 0 0 0 0 0 0 0 0 0 0 0 0 0 0 0 0 0 0 0 0 0 0 0 0 0 0 0
0 0 0 0 0 0 0 0 0 0 0 0 0 0 0 0 0 0 0 0 0 0 0 0 0 0 0 0 0 0 0 0 0 0 0 0 0 0 0 0 0 0 0
0 0 0 0 0 0 0 0 0 0 0 0 0 0 0 0 0 0 0 0 0 0 0 0 0 0 0 0 0 0 0 0 0 0 0 0 0 0 0 0 0 0 0
0 0 0 0 0 0 0 0 0 0 0 0 0 0 0 0 0 0 0 0 0 0 0 0 0 0 0 0 0 0 0 0 0 0 0 0 0 0 0 0 0 0 0
0 0 0 0 0 0 0 0 0 0 0 0 0 0 0 0 0 0 0 0 0 0 0 0 0 0 0 0 0 0 0 0 0 0 0 0 0 0 0 0 0 0 0
0 0 0 0 0 0 0 0 0 0 0 0 0 0 0 0 0 0 0 0 0 0 0 0 0 0 0 0 0 0 0 0 0 0 0 0 0 0 0 0 0 0 0
0 0 0 0 0 0 0 0 0 0 0 0 0 0 0 0 0 0 0 0 0 0 0 0 0 0 0 0 0 0 0 0 0 0 0 0 0 0 0 0 0 0 0
0 0 0 0 0 0 0 0 0 0 0 0 0 0 0 0 0 0 0 0 0 0 0 0 0 0 0 0 0 0 0 0 0 0 0 0 0 0 0 0 0 0 0
0 0 0 0 0 0 0 0 0 0 0 0 0 0 0 0 0 0 0 0 0 0 0 0 0 0 0 0 0 0 0 0 0 0 0 0 0 0 0 0 0 0 0
0 0 0 0 0 0 0 0 0 0 0 0 0 0 0 0 0 0 0 0 0 0 0 0 0 0 0 0 0 0 0 0 0 0 0 0 0 0 0 0 0 0 0
0 0 0 0 0 0 0 0 0 0 0 0 0 0 0 0 0 0 0 0 0 0 0 0 0 0 0 0 0 0 0 0 0 0 0 0 0 0 0 0 0 0 0
0 0 0 0 0 0 0 0 0 0 0 0 0 0 0 0 0 0 0 0 0 0 0 0 0 0 0 0 0 0 0 0 0 0 0 0 0 0 0 0 0 0 0
0 0 0 0 0 0 0 0 0 0 0 0 0 0 0 0 0 0 0 0 0 0 0 0 0 0 0 0 0 0 0 0 0 0 0 0 0 0 0 0 0 0 0
0 0 0 0 0 0 0 0 0 0 0 0 0 0 0 0 0 0 0 0 0 0 0 0 0 0 0 0 0 0 0 0 0 0 0 0 0 0 0 0 0 0 0
Height
5743 5748 5753 5758 5764 5769 5774 5779 5784 5788 5792 5796 5800 5803 5806 5808 5810 5811 5812 5813 5814 5814 5814 5813 5812 5811 5809 5807 5805 5802 5800 5797 5793 5790 5787 5783 5780 5776 5772 5767 5763 5759 5755
5735 5741 5746 5751 5757 5762 5768 5773 5778 5782 5787 5791 5794 5797 5799 5801 5804 5805 5807 5808 5808 5808 5807 5807 5806 5804 5803 5801 5798 5796 5793 5790 5787 5784 5780 5777 5774 5769 5765 5761 5757 5752 5748
5727 5733 5739 5744 5750 5756 5762 5767 5772 5776 5780 5784 5787 5790 5793 5795 5798 5800 5801 5801 5801 5802 5801 5800 5799 5798 5796 5794 5792 5789 5786 5783 5780 5777 5774 5770 5767 5763 5759 5754 5750 5745 5741
5719 5725 5731 5738 5744 5749 5755 5760 5765 5769 5773 5777 5781 5784 5787 5790 5792 5793 5794 5794 5795 5795 5795 5794 5793 5791 5789 5787 5785 5782 5779 5776 5773 5770 5766 5763 5759 5756 5752 5748 5743 5738 5733
5711 5718 5724 5730 5736 5742 5747 5753 5758 5762 5766 5770 5774 5777 5780 5783 5784 5786 5787 5788 5788 5788 5788 5787 5786 5784 5782 5780 5778 5775 5773 5769 5766 5763 5759 5755 5752 5748 5744 5741 5736 5731 5725
5703 5710 5716 5722 5728 5735 5740 5745 5750 5755 5759 5763 5767 5770 5773 5775 5777 5779 5780 5781 5782 5781 5781 5780 5779 5777 5775 5773 5771 5768 5765 5762 5759 5756 5752 5748 5744 5740 5736 5732 5728 5723 5717
5694 5701 5707 5714 5720 5727 5732 5737 5742 5747 5751 5755 5759 5763 5766 5768 5770 5772 5773 5774 5774 5774 5774 5773 5772 5770 5768 5766 5764 5761 5758 5755 5752 5748 5745 5741 5737 5732 5728 5724 5719 5714 5709
5685 5692 5699 5706 5712 5718 5724 5729 5734 5739 5743 5748 5752 5755 5758 5760 5763 5764 5766 5766 5767 5767 5766 5765 5764 5763 5761 5759 5756 5754 5751 5748 5744 5741 5737 5733 5729 5724 5720 5715 5710 5706 5701
5676 5683 5690 5697 5703 5709 5716 5721 5726 5731 5736 5740 5744 5748 5750 5753 5755 5756 5758 5759 5759 5759 5758 5758 5757 5755 5753 5751 5749 5747 5744 5741 5737 5733 5730 5726 5721 5716 5711 5706 5701 5696 5691
5667 5674 5681 5688 5694 5701 5707 5713 5718 5723 5728 5732 5736 5739 5742 5745 5747 5748 5750 5751 5751 5751 5751 5750 5749 5747 5746 5744 5742 5739 5736 5733 5730 5726 5722 5718 5713 5708 5703 5698 5692 5687 5681
5657 5664 5672 5679 5685 5691 5698 5704 5709 5715 5719 5724 5728 5731 5734 5737 5739 5740 5742 5743 5743 5743 5743 5742 5741 5740 5738 5736 5734 5732 5729 5726 5722 5718 5714 5710 5705 5700 5695 5689 5684 5677 5671
5648 5655 5662 5669 5676 5683 5689 5695 5701 5706 5711 5715 5719 5723 5726 5728 5730 5732 5734 5734 5735 5735 5735 5734 5733 5732 5730 5729 5727 5724 5721 5718 5714 5710 5706 5702 5697 5692 5687 5681 5675 5668 5661
5638 5645 5653 5660 5667 5674 5680 5686 5692 5697 5702 5706 5710 5714 5717 5720 5722 5724 5725 5726 5727 5727 5727 5726 5725 5724 5723 5721 5719 5716 5713 5710 5706 5702 5698 5693 5688 5683 5678 5672 5666 5659 5652
5629 5637 5644 5651 5658 5665 5671 5677 5683 5688 5693 5697 5701 5705 5708 5711 5714 5715 5717 5718 5718 5719 5718 5718 5717 5716 5715 5713 5711 5708 5705 5702 5698 5694 5690 5685 5680 5675 5669 5663 5657 5650 5642
5620 5628 5635 5642 5649 5656 5662 5668 5674 5679 5684 5688 5692 5696 5699 5702 5705 5707 5708 5709 5710 5710 5710 5710 5709 5708 5707 5705 5703 5700 5697 5694 5690 5686 5681 5677 5672 5666 5660 5654 5647 5639 5632
5612 5619 5626 5633 5640 5647 5653 5659 5664 5670 5674 5679 5684 5687 5690 5693 5696 5698 5700 5701 5702 5702 5702 5702 5702 5700 5699 5697 5695 5692 5689 5686 5682 5678 5673 5668 5663 5657 5651 5644 5637 5629 5621
5603 5611 5618 5625 5632 5638 5644 5650 5656 5661 5666 5671 5675 5678 5682 5685 5687 5690 5691 5693 5694 5694 5695 5694 5694 5693 5691 5689 5687 5684 5681 5678 5674 5670 5665 5660 5654 5648 5642 5635 5628 5619 5610
5595 5602 5610 5617 5623 5630 5636 5642 5647 5653 5658 5662 5666 5670 5673 5676 5679 5681 5683 5685 5686 5686 5687 5687 5686 5685 5683 5681 5679 5676 5673 5669 5665 5661 5657 5651 5646 5640 5633 5626 5618 5609 5601
5587 5594 5601 5608 5615 5622 5628 5634 5639 5644 5649 5654 5658 5662 5665 5668 5671 5673 5675 5677 5678 5679 5679 5679 5678 5677 5675 5673 5671 5668 5665 5661 5657 5653 5648 5643 5637 5631 5625 5617 5609 5601 5591
5579 5586 5593 5600 5607 5614 5620 5626 5631 5637 5641 5646 5650 5654 5657 5660 5663 5666 5667 5669 5670 5671 5671 5671 5670 5669 5667 5665 5663 5660 5657 5653 5649 5645 5640 5634 5628 5622 5615 5608 5600 5591 5581
5572 5579 5586 5593 5600 5606 5612 5618 5623 5629 5633 5638 5642 5646 5649 5652 5655 5658 5659 5661 5662 5663 5663 5663 5663 5661 5659 5657 5655 5652 5649 5645 5641 5636 5631 5625 5619 5613 5606 5598 5590 5581 5571
5564 5571 5578 5585 5592 5598 5605 5611 5616 5621 5625 5630 5634 5638 5641 5645 5647 5650 5651 5653 5654 5655 5656 5655 5655 5653 5651 5649 5647 5644 5641 5637 5632 5628 5622 5617 5611 5604 5597 5589 5581 5571 5562
5556 5563 5570 5577 5584 5590 5597 5603 5608 5613 5618 5622 5626 5630 5634 5637 5640 5642 5644 5646 5647 5648 5648 5648 5647 5645 5644 5641 5639 5636 5632 5628 5624 5619 5614 5608 5602 5595 5588 5580 5571 5562 5552
5548 5555 5562 5570 5576 5583 5589 5595 5600 5606 5610 5615 5619 5623 5626 5629 5632 5635 5637 5638 5639 5640 5640 5640 5639 5638 5636 5633 5631 5628 5624 5620 5616 5611 5606 5600 5593 5586 5579 5571 5562 5552 5542
5540 5547 5554 5562 5569 5575 5581 5587 5593 5598 5603 5607 5611 5615 5619 5622 5625 5627 5629 5631 5632 5633 5633 5632 5631 5630 5628 5626 5623 5620 5616 5612 5608 5603 5597 5591 5585 5578 5570 5561 5552 5543 5532
5532 5539 5546 5553 5560 5567 5573 5579 5585 5590 5595 5599 5604 5608 5612 5615 5617 5620 5622 5623 5624 5625 5625 5624 5623 5622 5620 5617 5614 5611 5607 5603 5599 5594 5589 5583 5576 5569 5561 5552 5543 5533 5523
Wind_Speed
44 44 43 42 41 40 39 38 37 36 34 33 31 30 29 28 27 27 27 27 27 27 28 29 30 31 32 32 33 34 34 35 36 36 37 37 38 38 38 38 38 38 39
46 45 44 43 42 41 40 38 38 37 35 34 32 31 30 30 29 28 28 28 28 29 30 30 31 32 32 33 34 34 35 36 36 36 37 37 37 37 38 38 38 39 40
48 46 45 44 43 42 40 39 38 38 36 35 33 32 31 31 30 29 29 29 30 30 30 31 32 32 33 34 34 35 36 36 36 37 37 38 37 37 37 38 39 40 41
49 47 46 45 44 42 42 41 39 38 38 36 35 33 32 31 31 31 31 31 31 31 31 32 32 33 34 34 35 35 36 36 37 37 38 38 38 38 37 38 40 41 42
50 49 47 46 45 43 42 41 40 39 38 37 36 35 33 33 33 32 32 32 32 32 33 33 33 34 34 35 35 35 35 36 37 37 38 38 38 39 39 39 41 42 42
51 50 48 47 45 44 43 42 41 40 39 38 37 36 35 34 34 33 33 33 33 34 34 34 34 34 35 35 35 35 36 36 37 38 38 38 38 39 40 41 42 42 43
51 50 49 47 45 44 43 43 42 41 40 39 38 36 36 36 35 34 34 34 34 34 34 35 35 35 35 35 35 35 36 36 37 37 38 39 39 40 41 42 43 43 44
50 50 50 48 47 46 45 43 42 41 40 39 38 37 36 36 35 35 36 36 35 35 35 35 35 35 35 35 35 35 36 36 37 38 38 39 40 41 42 43 44 44 44
50 49 49 49 48 47 46 45 43 42 41 40 39 38 37 36 36 36 36 36 35 35 35 35 35 35 35 34 35 35 36 36 37 38 39 39 41 42 43 43 44 46 46
49 49 49 49 48 47 47 45 44 42 42 41 40 39 37 37 37 37 36 35 34 34 34 35 35 35 34 34 34 35 36 36 37 38 39 40 41 42 43 44 45 47 48
48 49 49 49 49 47 47 45 44 43 42 41 40 39 39 38 37 37 36 35 34 34 34 35 34 34 33 34 34 35 36 36 37 39 40 41 42 42 43 44 46 47 49
47 48 49 48 48 48 47 46 45 44 43 42 41 40 39 38 38 36 36 35 34 34 34 34 34 33 33 34 34 34 36 37 38 39 40 41 42 42 43 45 47 48 50
47 47 48 47 46 47 47 46 45 44 43 42 42 40 40 39 37 36 35 34 34 34 34 33 32 32 33 33 34 35 36 37 38 39 40 41 42 43 44 46 47 49 51
46 46 46 45 45 45 46 46 45 44 43 41 40 40 39 38 37 36 34 34 34 34 33 32 32 32 33 33 34 35 36 37 38 39 40 41 42 43 45 47 49 51 52
44 45 45 45 45 44 44 45 44 43 42 41 40 39 38 37 36 34 34 34 33 32 32 32 32 32 32 33 34 35 36 37 38 39 41 42 42 44 46 48 50 51 53
44 44 45 45 44 43 42 41 41 41 40 40 39 37 36 35 35 34 34 33 32 31 31 31 31 32 32 33 34 35 36 37 38 39 40 41 43 44 46 48 50 52 54
43 43 43 43 42 41 40 39 39 39 39 38 37 36 35 35 34 33 32 32 31 30 30 31 31 31 31 33 34 35 36 37 38 39 40 41 43 45 47 49 51 52 55
42 42 42 42 42 41 40 40 39 38 37 36 35 34 34 33 32 31 31 30 30 29 29 30 30 31 31 32 33 35 36 37 38 39 40 41 43 45 47 49 50 52 55
41 42 42 42 42 41 41 40 39 38 37 35 34 33 32 31 31 30 30 29 29 29 29 29 30 31 31 32 33 35 36 37 38 39 40 41 43 45 48 49 51 53 56
41 42 42 41 41 40 39 38 38 37 36 34 33 32 32 31 30 30 29 29 28 28 28 29 29 30 31 32 33 34 35 36 37 39 40 42 44 45 48 49 51 54 56
43 42 42 41 40 39 38 38 37 36 35 34 32 32 31 31 30 29 28 28 27 27 28 29 29 30 31 32 33 34 35 36 37 39 41 42 44 45 48 50 52 55 56
43 43 42 41 40 39 38 37 37 36 35 33 32 31 31 30 29 28 27 27 27 27 28 28 29 30 31 32 33 34 35 36 38 39 41 42 44 46 48 51 53 55 56
42 42 41 40 40 39 38 37 37 36 34 33 32 31 30 29 28 27 27 26 26 27 28 28 29 30 31 32 33 34 35 37 38 39 41 42 44 46 49 51 53 55 57
42 42 41 40 39 39 38 37 36 34 34 32 31 30 29 29 28 27 26 26 27 27 27 28 29 30 31 32 33 35 36 37 38 39 41 42 44 47 49 51 53 55 57
42 42 41 40 39 38 37 36 35 34 34 32 31 30 29 28 27 27 27 27 27 26 27 28 29 30 31 32 34 35 36 37 38 39 40 42 45 47 49 51 54 56 57
43 43 42 41 39 39 38 36 35 34 33 32 30 29 28 28 27 27 27 26 26 27 27 28 29 30 31 33 34 35 36 37 38 39 40 43 45 47 50 51 54 56 57
Wind_Direction
224 224 225 225 226 227 228 228 229 231 233 235 238 242 245 249 252 257 262 267 273 278 282 286 290 294 297 299 301 303 305 307 308 308 310 311 312 312 312 312 312 312 312
225 225 225 225 226 227 229 230 231 232 234 237 239 242 245 249 252 257 263 268 272 277 282 287 291 294 296 298 300 301 304 305 307 308 309 310 311 311 311 311 311 312 312
226 226 226 227 227 228 230 231 232 234 236 238 241 243 246 249 254 259 264 268 272 277 283 287 291 293 295 297 299 300 303 304 305 307 308 310 310 310 310 311 311 312 312
226 227 228 228 229 230 231 233 234 235 237 239 241 244 247 251 255 259 264 269 274 278 283 287 290 292 294 296 298 300 302 303 305 306 307 308 309 309 310 311 311 312 312
227 229 229 229 230 231 232 233 235 236 238 240 242 245 248 251 255 260 265 270 274 278 282 286 288 291 293 295 297 299 301 303 304 305 306 307 308 309 310 311 311 311 311
228 229 230 230 231 231 233 234 235 237 239 241 243 246 249 252 256 261 265 270 274 278 282 284 287 290 292 293 296 298 300 302 303 304 305 306 307 308 310 310 311 311 311
227 228 230 230 231 231 233 235 237 238 240 242 244 247 250 253 257 261 266 271 275 277 280 283 285 289 290 292 295 298 300 301 302 304 305 306 307 308 309 310 310 311 311
228 228 230 230 231 232 232 235 238 239 241 242 245 248 251 254 258 262 267 271 273 276 279 282 285 287 289 292 294 297 298 300 301 303 304 305 306 308 309 309 310 310 310
228 229 230 231 231 232 233 235 237 239 242 245 247 249 251 255 259 263 266 270 273 276 279 282 284 286 288 291 294 296 298 299 301 302 304 305 306 308 309 309 309 309 310
228 229 230 231 231 232 234 235 237 240 243 245 247 249 251 255 259 263 266 269 272 275 279 281 283 285 288 291 293 295 297 298 300 302 303 305 306 308 308 308 309 310 311
229 230 231 231 232 232 234 236 237 240 243 245 247 248 251 254 258 262 265 268 271 275 278 280 282 285 287 290 292 294 296 298 300 302 303 305 306 307 308 308 309 310 311
229 230 231 232 232 233 235 235 237 240 243 244 246 248 251 254 258 261 264 268 270 273 276 279 281 284 287 289 292 294 296 298 300 301 303 304 306 307 308 309 310 311 312
228 229 230 232 233 234 235 236 237 239 241 244 246 248 251 254 257 260 263 266 269 272 275 278 281 284 286 289 291 293 296 298 300 301 302 304 306 307 309 310 310 311 312
227 228 229 230 232 234 235 236 237 239 241 243 245 248 251 253 256 259 261 264 268 271 274 277 280 283 286 288 291 293 296 298 299 301 303 305 307 308 309 310 311 312 313
223 224 226 229 231 232 234 236 237 237 239 241 243 245 248 251 254 257 260 263 267 270 274 277 279 282 286 288 290 293 296 298 300 302 304 306 308 309 310 311 312 313 314
220 221 223 225 228 230 232 233 235 237 238 240 242 244 247 250 253 256 259 263 266 270 273 276 279 283 286 288 291 294 296 299 300 302 305 307 309 310 311 312 313 314 316
219 220 220 221 223 225 228 230 233 236 239 240 242 244 246 248 252 255 258 262 266 269 272 275 279 283 286 289 291 295 297 300 301 303 306 307 309 310 312 314 315 316 317
218 219 219 219 221 223 226 229 231 233 236 239 241 243 245 248 251 254 258 261 265 269 272 276 280 283 286 289 292 295 298 300 302 304 306 308 309 311 313 315 316 317 318
215 216 217 218 221 223 226 229 231 232 234 237 239 241 244 247 250 253 257 261 265 268 272 276 280 283 286 289 293 296 298 301 303 305 307 308 310 312 314 316 317 318 319
214 214 215 217 220 223 226 228 230 231 233 235 238 241 244 247 250 253 257 261 264 268 272 277 280 283 287 291 294 297 300 302 304 306 308 310 312 313 316 317 318 319 320
217 216 217 217 219 223 226 228 230 231 233 235 238 241 244 247 250 253 257 260 264 268 272 277 280 284 288 292 295 298 300 303 305 307 309 311 313 314 316 318 319 320 322
220 220 221 220 221 223 225 228 230 232 234 236 238 241 245 248 252 253 256 260 264 268 273 277 281 285 288 292 296 299 302 304 306 308 310 311 313 315 317 319 321 322 323
221 221 221 222 223 223 224 227 230 234 236 238 239 242 245 249 252 254 258 261 265 270 274 279 282 286 290 294 297 300 302 304 306 308 311 312 314 317 318 320 322 323 324
220 220 220 222 223 223 224 227 230 232 235 237 239 241 245 248 251 254 259 263 267 271 276 279 283 288 291 295 298 300 303 305 307 309 311 313 315 317 319 321 323 324 325
219 220 219 220 222 224 225 227 228 231 233 236 239 241 244 246 250 254 258 262 267 272 276 280 285 289 293 296 298 301 303 306 308 310 312 314 316 318 320 322 324 325 326
219 219 219 219 221 223 225 227 228 231 233 236 238 240 243 246 250 254 258 263 268 272 276 281 286 289 293 296 299 301 303 306 308 310 313 315 317 320 322 323 325 326 327